Location: Cahas Mountain Overlook
(37.0833°N, 80.1000°W)
Time: 18:46:16
(UTC-04:00)

SR - Pass Details

Date: 13 February 2026
Orbit: 572 x 849 km, 66.7° (Epoch: 13 March)

Event Time Altitude Azimuth Distance (km) Brightness Sun altitude
Rises 05:36:29 0° 205° (SSW) 2,761 - -19.5°
Reaches altitude 10° 05:38:41 10° 205° (SSW) 1,865 - -19.0°
Exits shadow 05:39:20 14° 205° (SSW) 1,604 ? -18.9°
Maximum altitude 05:42:50 87° 122° (ESE) 582 ? -18.2°
Drops below altitude 10° 05:47:08 10° 28° (NNE) 1,928 ? -17.3°
Sets 05:49:26 0° 28° (NNE) 2,863 ? -16.9°
